Retour au catalogue

STARLINK-38047

ActifCommunicationsSSO
NORAD 69745·PAYLOAD·🇺🇸 United States

Lancé Jul 2, 2026 depuis Vandenberg Space Force Base

Loading…

Prochains Passages (prochaines 24 heures)

TLE

FraisSource: CelesTrak SupGP

Époque: Sep 15, 2026, 03:36 UTC

1 69745C 26150G   26258.15048611 -.00054135  00000+0 -16803-2 0  2581
2 69745  97.2845  97.1856 0001972  92.4868  70.6641 15.33468529    11

Suivez STARLINK-38047 en temps réel avec AllMySat

Download on the App Store